Location: Fort Wayne
(41.1310°N, 85.1290°W)
Time: 11:58:47
(UTC-04:00)

Cosmos 1000 Rocket - Visible Passes

Search period start: 24 March 2017 00:00
Search period end: 03 April 2017 00:00
Orbit: 953 x 993 km, 82.9° (Epoch: 22 March)

Date Brightness Start Highest point End Pass type
(mag) Time Alt. Az. Time Alt. Az. Time Alt. Az.
24 Mar 5.8 21:13:09 10° NNW 21:18:55 42° W 21:24:42 10° SSW visible
25 Mar 6.8 21:38:32 10° NW 21:43:17 24° W 21:48:03 10° SW visible
26 Mar 4.6 20:16:54 10° N 20:23:07 89° ENE 20:29:21 10° S visible
26 Mar 7.5 22:05:02 10° NW 22:07:30 13° W 22:09:58 10° WSW visible
27 Mar 5.5 20:41:45 10° NNW 20:47:42 52° W 20:53:41 10° SSW visible
28 Mar 6.6 21:06:57 10° NNW 21:12:07 29° W 21:17:20 10° SW visible
29 Mar 7.4 21:32:53 10° NW 21:36:23 16° W 21:39:56 10° WSW visible
31 Mar 6.4 20:35:26 10° NNW 20:40:58 35° W 20:46:31 10° SSW visible
01 Apr 7.3 21:01:02 10° NW 21:05:17 20° W 21:09:34 10° SW visible
